Torna al catalogo

ATLAS 5 CENTAUR DEB

LostHEO
NORAD 43978·DEBRIS·🇺🇸 United States

Lanciato Sep 17, 2014 da Cape Canaveral Space Force Station

Loading…

Prossimi Passaggi (prossime 24 ore)

TLE

ObsoletoSource: Space-Track

Epoca: Jan 25, 2019, 00:14 UTC

1 43978U 14055AH  19025.01008542 -.00000181  00000-0  00000+0 0  9993
2 43978  22.2568  32.5491 4641123  78.1881  45.2433  1.83159221  2618

Traccia ATLAS 5 CENTAUR DEB in tempo reale con AllMySat

Download on the App Store